User: anonymous   Login
Location: Banios
(43.0451°N, 0.2335°E)
Time: 15:37:55
(UTC+00:00)
Language:

SKYMED 2 - Orbit

View from above orbital plane
View from above orbital plane
View from above satellite
View from above satellite

Ground track
Ground track

The orbit data is extracted from the following two-line orbital elements,

1 32376U 07059A   21105.21610855  .00000237  00000-0  36275-4 0  9998
2 32376  97.8889 290.0076 0001424  89.3740 270.7617 14.82149105722273
Epoch (UTC): 15 April 2021 05:11:11
Eccentricity: 0.0001424
inclination: 97.8889°
perigee height: 621 km
apogee height: 623 km
right ascension of ascending node: 290.0076°
argument of perigee: 89.3740°
revolutions per day: 14.82149105
mean anomaly at epoch: 270.7617°
orbit number at epoch: 72227

The dashed part of the orbit path shows where the satellite is in the earth's shadow,  

DLR